Location: Byhalia Creek
(34.8270°N, 89.8040°W)
Time: 20:02:44
(UTC+00:00)

ATLAS 2AS CENTAUR R/B - Pass Details

Date: 22 April 2026
Orbit: 1052 x 1158 km, 63.7° (Epoch: 21 May)

Event Time Altitude Azimuth Distance (km) Brightness Sun altitude
Exits shadow 05:31:51 29° 15° (NNE) 1,847 4.2 -42.6°
Drops below altitude 10° 05:35:03 10° 24° (NNE) 2,901 5.4 -42.7°
Sets 05:37:43 0° 28° (NNE) 3,848 6.2 -42.7°
